Location: Marstown
(39.5056°N, 77.0820°W)
Time: 22:20:07
(UTC-04:00)

Hubble Space Telescope - Visible Passes

Search period start: 19 September 2018 00:00
Search period end: 29 September 2018 00:00
Orbit: 537 x 541 km, 28.5° (Epoch: 19 September)

Date Brightness Start Highest point End Pass type
(mag) Time Alt. Az. Time Alt. Az. Time Alt. Az.
19 Sep 2.6 20:25:02 10° SW 20:27:43 17° S 20:28:40 16° SSE visible
20 Sep 2.7 20:14:28 10° SW 20:17:13 17° S 20:18:51 14° SSE visible
21 Sep 2.7 20:03:57 10° SW 20:06:43 18° S 20:09:00 12° SE visible
22 Sep 2.8 19:53:29 10° SW 19:56:14 17° S 19:58:59 10° SE visible
23 Sep 2.9 19:43:04 10° SW 19:45:44 17° S 19:48:24 10° SE visible
24 Sep 3.0 19:32:42 10° SW 19:35:14 16° S 19:37:46 10° SSE visible
25 Sep 3.2 19:22:25 10° SW 19:24:44 15° S 19:27:02 10° SSE visible
